Weather in Kakinada

India     16°56′59″N   82°14′45″E
temp.,
°C
wind,
m/s
gust,
m/s
humid.,
%
clouds,
%
prec.,
mm/h
press.,
hPa
HPBL,
m
20 may, fri
fri2023:30+29ssw2576100 0.0 1006502
02:30+28ssw2477100 0.0 1004311
05:30+28ne0178100 0.0 100597
08:30+31s136494 0.4 1006975
11:30+35sse234897 0.5 10041858
14:30+36se334690 0.0 10021673
17:30+34ssw4553100 0.0 10011361
20:30+30ssw41067100 0.3 1004573
21 may, sat
sat2123:30+30sw386993 0.3 1004471
02:30+29wsw3871100 0.0 1002487
05:30+28wsw41067100 0.0 1002557
08:30+31wsw5757100 0.0 1004931
11:30+34w5646100 0.0 10021584
14:30+37wsw6540100 0.0 9991962
17:30+35ssw6745100 0.0 997863
20:30+31sw51360100 0.1 1000637
22 may, sun
sun2223:30+29wsw2667100 1.7 1002312
02:30+26wsw41078100 5.2 1000306
05:30+28wsw81663100 5.9 998531
08:30+30w5136138 0.0 1000663
11:30+36w583779 0.0 9991319
14:30+35sw463982 0.0 997362
17:30+34s374962 0.0 996240
20:30+32sw38520 0.0 997231
23 may, mon
mon2323:30+30wsw313471 0.0 998385
02:30+29wsw3125746 0.0 998445
05:30+29wsw4125642 0.0 999586
08:30+35w7123981 0.0 10011270
11:30+41wnw68224 0.0 9992024
14:30+43wnw56181 0.0 9963642
17:30+41w461920 0.0 9961562
20:30+35sw5134157 0.0 998422
24 may, tue
tue2423:30+33sw5144851 0.0 999602
02:30+31wsw3106374 0.0 999517
05:30+30sw4107193 0.0 1001510
08:30+35w593893 0.0 1003877
11:30+41w57230 0.0 10011712
14:30+44wsw34172 0.0 9983883
17:30+39ese133396 0.0 9981293
20:30+35ssw410413 0.0 1000347